When you browse on this site, cookies collect data to enhance your experience and personalize the content and advertising you see.
Visit our Privacy Policy to learn more. By continuing to use the site, you agree to this use of cookies and data.
  • în România
  • Lista ţărilor
  • Pe 7 zile
  • Temperatura apei
  • Hartă satelitară
  • Meteo pe hartă
  • Widget-uri
  • user-avatar
    Intrare

    Meteo pe oră la Mogilno

    Astăzi, 19 Martie, Marţi

    Timp Temperatura Precipitaţii Vânt Presiune Umiditate
    00:00 +1°C° 0 mm 6 m/s 753 mmHg 77%
    01:00 +1°C° 0 mm 5 m/s 753 mmHg 80%
    02:00 0°C° 0 mm 5 m/s 753 mmHg 82%
    03:00 0°C° 0 mm 5 m/s 753 mmHg 84%
    04:00 0°C° 0 mm 5 m/s 754 mmHg 86%
    05:00 0°C° 0 mm 5 m/s 754 mmHg 86%
    06:00 0°C° 0 mm 5 m/s 755 mmHg 85%
    07:00 0°C° 0 mm 5 m/s 756 mmHg 85%
    08:00 +1°C° 0 mm 5 m/s 757 mmHg 82%
    09:00 +1°C° 0 mm 5 m/s 757 mmHg 79%
    10:00 +2°C° 0 mm 5 m/s 758 mmHg 76%
    11:00 +3°C° 0 mm 5 m/s 758 mmHg 69%
    12:00 +6°C° 0 mm 4 m/s 758 mmHg 61%
    13:00 +7°C° 0 mm 4 m/s 758 mmHg 54%
    14:00 +7°C° 0.1 mm 4 m/s 759 mmHg 52%
    15:00 +7°C° 0.1 mm 4 m/s 759 mmHg 51%
    16:00 +8°C° 0.1 mm 3 m/s 759 mmHg 49%
    17:00 +7°C° 0.1 mm 3 m/s 759 mmHg 56%
    18:00 +5°C° 0.1 mm 3 m/s 760 mmHg 63%
    19:00 +5°C° 0.1 mm 2 m/s 760 mmHg 69%
    20:00 +4°C° 0 mm 2 m/s 761 mmHg 72%
    21:00 +4°C° 0 mm 2 m/s 761 mmHg 75%
    22:00 +3°C° 0 mm 2 m/s 762 mmHg 78%
    23:00 +3°C° 0 mm 2 m/s 762 mmHg 80%

    Mâine, 20 Martie, Miercuri

    Timp Temperatura Precipitaţii Vânt Presiune Umiditate
    00:00 +2°C° 0 mm 2 m/s 763 mmHg 81%
    01:00 +2°C° 0 mm 2 m/s 763 mmHg 83%
    02:00 +1°C° 0 mm 2 m/s 763 mmHg 81%
    03:00 +1°C° 0 mm 2 m/s 763 mmHg 80%
    04:00 -1°C° 0 mm 2 m/s 763 mmHg 79%
    05:00 -1°C° 0 mm 2 m/s 764 mmHg 77%
    06:00 -1°C° 0 mm 2 m/s 764 mmHg 74%
    07:00 -1°C° 0 mm 2 m/s 765 mmHg 72%
    08:00 +1°C° 0 mm 3 m/s 765 mmHg 65%
    09:00 +3°C° 0 mm 3 m/s 765 mmHg 58%
    10:00 +5°C° 0 mm 3 m/s 765 mmHg 51%
    11:00 +7°C° 0 mm 3 m/s 765 mmHg 47%
    12:00 +7°C° 0 mm 4 m/s 765 mmHg 44%
    13:00 +8°C° 0 mm 4 m/s 765 mmHg 41%
    14:00 +8°C° 0 mm 4 m/s 765 mmHg 42%
    15:00 +8°C° 0 mm 4 m/s 765 mmHg 42%
    16:00 +8°C° 0 mm 5 m/s 765 mmHg 43%
    17:00 +7°C° 0 mm 4 m/s 765 mmHg 50%
    18:00 +6°C° 0 mm 4 m/s 765 mmHg 57%
    19:00 +5°C° 0 mm 3 m/s 765 mmHg 64%
    20:00 +5°C° 0 mm 4 m/s 765 mmHg 62%
    21:00 +6°C° 0 mm 4 m/s 765 mmHg 61%
    22:00 +6°C° 0 mm 4 m/s 765 mmHg 60%
    23:00 +6°C° 0 mm 4 m/s 765 mmHg 64%

    Poimâine, 21 Martie, Joi

    Timp Temperatura Precipitaţii Vânt Presiune Umiditate
    00:00 +5°C° 0 mm 4 m/s 765 mmHg 68%
    01:00 +5°C° 0 mm 4 m/s 765 mmHg 72%
    02:00 +5°C° 0 mm 4 m/s 765 mmHg 77%
    03:00 +5°C° 0 mm 4 m/s 765 mmHg 82%
    04:00 +5°C° 0 mm 3 m/s 765 mmHg 87%
    05:00 +5°C° 0 mm 3 m/s 765 mmHg 88%
    06:00 +5°C° 0 mm 3 m/s 766 mmHg 90%
    07:00 +5°C° 0 mm 3 m/s 766 mmHg 92%
    08:00 +7°C° 0 mm 3 m/s 766 mmHg 89%
    09:00 +8°C° 0 mm 3 m/s 766 mmHg 86%
    10:00 +9°C° 0 mm 3 m/s 766 mmHg 83%
    11:00 +9°C° 0 mm 3 m/s 766 mmHg 80%
    12:00 +10°C° 0 mm 3 m/s 766 mmHg 77%
    13:00 +11°C° 0 mm 4 m/s 766 mmHg 74%
    14:00 +11°C° 0 mm 4 m/s 766 mmHg 75%
    15:00 +11°C° 0 mm 4 m/s 765 mmHg 76%
    16:00 +11°C° 0 mm 3 m/s 765 mmHg 77%
    17:00 +10°C° 0 mm 3 m/s 765 mmHg 80%
    18:00 +10°C° 0 mm 3 m/s 765 mmHg 83%
    19:00 +9°C° 0 mm 3 m/s 765 mmHg 86%
    20:00 +9°C° 0 mm 3 m/s 765 mmHg 86%
    21:00 +9°C° 0 mm 3 m/s 765 mmHg 87%
    22:00 +9°C° 0 mm 3 m/s 765 mmHg 87%
    23:00 +9°C° 0 mm 3 m/s 765 mmHg 88%

    22 Martie, Vineri

    Timp Temperatura Precipitaţii Vânt Presiune Umiditate
    00:00 +9°C° 0 mm 3 m/s 765 mmHg 88%
    01:00 +9°C° 0 mm 3 m/s 765 mmHg 89%
    02:00 +9°C° 0 mm 3 m/s 765 mmHg 89%
    03:00 +9°C° 0 mm 3 m/s 764 mmHg 89%
    04:00 +9°C° 0 mm 3 m/s 764 mmHg 90%
    05:00 +9°C° 0 mm 3 m/s 764 mmHg 90%
    06:00 +9°C° 0 mm 3 m/s 764 mmHg 90%
    07:00 +9°C° 0 mm 3 m/s 765 mmHg 90%
    08:00 +10°C° 0 mm 3 m/s 765 mmHg 85%
    09:00 +12°C° 0 mm 4 m/s 765 mmHg 79%
    10:00 +13°C° 0 mm 4 m/s 765 mmHg 73%
    11:00 +13°C° 0 mm 4 m/s 764 mmHg 71%
    12:00 +14°C° 0 mm 4 m/s 764 mmHg 68%
    13:00 +14°C° 0 mm 4 m/s 763 mmHg 66%
    14:00 +14°C° 0 mm 4 m/s 763 mmHg 65%
    15:00 +14°C° 0 mm 3 m/s 763 mmHg 65%
    16:00 +15°C° 0 mm 2 m/s 762 mmHg 65%
    17:00 +14°C° 0 mm 2 m/s 762 mmHg 69%
    18:00 +13°C° 0 mm 2 m/s 762 mmHg 72%
    19:00 +12°C° 0 mm 2 m/s 762 mmHg 76%
    20:00 +11°C° 0 mm 3 m/s 762 mmHg 78%
    21:00 +10°C° 0 mm 3 m/s 762 mmHg 81%
    22:00 +9°C° 0 mm 3 m/s 762 mmHg 83%
    23:00 +9°C° 0 mm 3 m/s 762 mmHg 85%

    23 Martie, Sâmbătă

    Timp Temperatura Precipitaţii Vânt Presiune Umiditate
    00:00 +9°C° 0 mm 3 m/s 762 mmHg 86%
    01:00 +8°C° 0 mm 3 m/s 761 mmHg 87%
    02:00 +8°C° 0 mm 3 m/s 761 mmHg 88%
    03:00 +8°C° 0 mm 3 m/s 761 mmHg 89%
    04:00 +8°C° 0 mm 3 m/s 761 mmHg 90%
    05:00 +8°C° 0 mm 3 m/s 761 mmHg 89%
    06:00 +8°C° 0 mm 3 m/s 761 mmHg 87%
    07:00 +8°C° 0 mm 3 m/s 761 mmHg 86%
    08:00 +10°C° 0 mm 3 m/s 761 mmHg 78%
    09:00 +12°C° 0 mm 3 m/s 761 mmHg 71%
    10:00 +14°C° 0 mm 3 m/s 760 mmHg 63%
    11:00 +16°C° 0 mm 3 m/s 760 mmHg 60%
    12:00 +17°C° 0 mm 4 m/s 760 mmHg 57%
    13:00 +18°C° 0 mm 4 m/s 760 mmHg 54%
    14:00 +18°C° 0 mm 4 m/s 759 mmHg 54%
    15:00 +18°C° 0 mm 4 m/s 759 mmHg 55%
    16:00 +18°C° 0 mm 4 m/s 759 mmHg 55%
    17:00 +16°C° 0 mm 3 m/s 759 mmHg 62%
    18:00 +14°C° 0 mm 3 m/s 759 mmHg 69%
    19:00 +12°C° 0 mm 3 m/s 759 mmHg 76%
    20:00 +12°C° 0 mm 2 m/s 760 mmHg 79%
    21:00 +10°C° 0 mm 2 m/s 760 mmHg 82%
    22:00 +9°C° 0 mm 2 m/s 760 mmHg 86%
    23:00 +9°C° 0 mm 2 m/s 760 mmHg 87%

    24 Martie, Duminică

    Timp Temperatura Precipitaţii Vânt Presiune Umiditate
    00:00 +9°C° 0 mm 2 m/s 759 mmHg 88%
    01:00 +9°C° 0 mm 2 m/s 759 mmHg 89%
    02:00 +8°C° 0 mm 2 m/s 759 mmHg 89%
    03:00 +9°C° 0 mm 1 m/s 759 mmHg 89%
    04:00 +9°C° 0 mm 1 m/s 758 mmHg 89%
    05:00 +9°C° 0 mm 1 m/s 758 mmHg 88%
    06:00 +9°C° 0 mm 1 m/s 758 mmHg 87%
    07:00 +9°C° 0 mm 1 m/s 758 mmHg 87%
    08:00 +10°C° 0 mm 1 m/s 758 mmHg 83%
    09:00 +10°C° 0 mm 1 m/s 758 mmHg 80%
    10:00 +11°C° 0 mm 1 m/s 758 mmHg 76%
    11:00 +12°C° 0 mm 2 m/s 757 mmHg 71%
    12:00 +14°C° 0 mm 2 m/s 756 mmHg 65%
    13:00 +14°C° 0 mm 3 m/s 756 mmHg 60%
    14:00 +14°C° 0.3 mm 3 m/s 755 mmHg 62%
    15:00 +13°C° 0.3 mm 4 m/s 755 mmHg 63%
    16:00 +13°C° 0.3 mm 5 m/s 755 mmHg 65%
    17:00 +11°C° 0.2 mm 4 m/s 755 mmHg 68%
    18:00 +10°C° 0.2 mm 4 m/s 755 mmHg 72%
    19:00 +8°C° 0.2 mm 3 m/s 755 mmHg 75%
    20:00 +7°C° 0 mm 3 m/s 755 mmHg 76%
    21:00 +5°C° 0 mm 3 m/s 755 mmHg 77%
    22:00 +5°C° 0 mm 4 m/s 755 mmHg 78%
    23:00 +3°C° 0 mm 5 m/s 755 mmHg 77%
    Arată mai mult